Location: Pella
(41.4080°N, 92.9160°W)
Time: 09:07:57
(UTC-05:00)

ISS - Visible Passes

Search period start: 24 March 2017 00:00
Search period end: 03 April 2017 00:00
Orbit: 399 x 409 km, 51.6° (Epoch: 24 March)

Date Brightness Start Highest point End Pass type
(mag) Time Alt. Az. Time Alt. Az. Time Alt. Az.
24 Mar -2.0 05:24:19 22° SSE 05:24:19 22° SSE 05:25:46 10° SSE visible
25 Mar -1.2 21:07:05 10° SSW 21:07:12 11° SSW 21:07:12 11° SSW visible
26 Mar -2.0 20:15:51 10° SSE 20:17:41 14° SE 20:18:21 14° ESE visible
26 Mar -1.0 21:50:33 10° WSW 21:51:05 14° WSW 21:51:05 14° WSW visible
27 Mar -4.0 20:58:11 10° SW 21:01:24 67° SE 21:01:58 52° E visible
28 Mar -3.1 20:06:08 10° SSW 20:09:05 33° SE 20:12:04 10° ENE visible
28 Mar -2.1 21:42:34 10° W 21:45:17 32° NW 21:45:17 32° NW visible
29 Mar -3.1 20:49:51 10° WSW 20:53:02 53° NNW 20:55:38 15° NE visible
29 Mar -0.3 22:27:53 10° NW 22:28:19 12° NW 22:28:19 12° NW visible
30 Mar -3.9 19:57:21 10° SW 20:00:35 83° SSE 20:03:52 10° NE visible
30 Mar -1.5 21:34:51 10° WNW 21:37:23 21° NNW 21:38:27 18° N visible
31 Mar -1.9 20:41:52 10° W 20:44:45 28° NNW 20:47:39 10° NE visible
31 Mar -0.6 22:20:12 10° NW 22:21:04 13° NNW 22:21:04 13° NNW visible
01 Apr -1.1 21:27:12 10° NW 21:29:16 16° N 21:30:53 12° NNE visible
02 Apr -1.3 20:34:07 10° WNW 20:36:32 19° NNW 20:38:58 10° NNE visible
02 Apr -0.8 22:12:08 10° NNW 22:13:15 13° N 22:13:15 13° N visible
